Hourly Data Report for October 13, 2016

All times are specified in Local Standard Time (LST). Add 1 hour to adjust for Daylight Saving Time where and when it is observed.

RESOLUTE BAY A
NUNAVUT

74°43'01.000" N
94°58'10.000" W
67.70 m
2403498
71924
YRB

Download Data

Hourly Data (October 2016)
Hourly Data Report for October 13, 2016
Temp Definition
°C
Dew Point Temp Definition
°C
Rel Hum Definition
%
Wind Dir Definition
10's deg

Wind Spd Definition
km/h
Visibility Definition
km
Stn Press Definition
kPa
Hmdx Definition


Wind Chill Definition


Weather Definition


TIME
00:00 Legend Double Dagger -9.6 -12.6 79 30 5 24.1 100.53   -12 Cloudy
01:00 Legend Double Dagger -9.3 -13.0 75 8 13 24.1 100.53   -15 LegendNANA
02:00 Legend Double Dagger -8.6 -12.6 73 9 16 24.1 100.55   -15 LegendNANA
03:00 Legend Double Dagger -9.0 -13.3 71 8 12 24.1 100.55   -15 Cloudy
04:00 Legend Double Dagger -9.3 -13.5 72 5 14 24.1 100.57   -16 LegendNANA
05:00 Legend Double Dagger -9.4 -12.9 76 6 17 24.1 100.57   -16 LegendNANA
06:00 Legend Double Dagger -9.4 -12.9 76 4 12 24.1 100.58   -15 Cloudy
07:00 Legend Double Dagger -9.1 -12.4 77 5 9 24.1 100.56   -14 LegendNANA
08:00 Legend Double Dagger -8.7 -12.2 76 8 10 24.1 100.52   -14 LegendNANA
09:00 Legend Double Dagger -8.7 -11.6 80 8 12 24.1 100.50   -14 Cloudy
10:00 Legend Double Dagger -8.4 -11.1 81 11 9 24.1 100.48   -13 Snow
11:00 Legend Double Dagger -8.4 -10.2 87 14 22 16.1 100.45   -16 Snow
12:00 Legend Double Dagger -8.7 -10.5 87 13 19 12.9 100.43   -16 Snow
13:00 Legend Double Dagger -9.2 -11.0 87 12 15 6.4 100.41   -16 Snow
14:00 Legend Double Dagger -8.9 -10.4 89 14 15 19.3 100.40   -15 Snow
15:00 Legend Double Dagger -9.4 -11.2 87 13 15 19.3 100.38   -16 Snow
16:00 Legend Double Dagger -9.6 -11.2 88 12 13 19.3 100.36   -16 Snow
17:00 Legend Double Dagger -9.3 -10.8 89 13 15 9.7 100.33   -16 Snow
18:00 Legend Double Dagger -9.5 -11.0 89 13 16 4.0 100.30   -16 Snow,Fog
19:00 Legend Double Dagger -10.0 -11.6 88 13 10 4.0 100.28   -15 Snow,Fog
20:00 Legend Double Dagger -9.9 -11.7 87 12 16 4.0 100.24   -17 Snow,Fog
21:00 Legend Double Dagger -9.8 -11.3 89 12 13 4.0 100.21   -16 Snow,Fog
22:00 Legend Double Dagger -9.6 -11.1 89 12 13 4.0 100.20   -16 Snow,Fog
23:00 Legend Double Dagger -9.3 -10.8 89 15 16 3.2 100.18   -16 Snow,Fog

Notes on Data Quality.

Legend

  • E = Estimated
  • M = Missing
  • NA = Not Available
  • ‡ = Partner data that is not subject to review by the National Climate Archives
Date modified: